C/2016 A1 ( PanSTARRS )

Japanese version
Home page
Updated on May 21, 2018

---------------------------------------------------------------------

* Profile

Discovery Date January 1, 2016
Magnitude 19.3 mag
Discoverer Pan-STARRS 1 telescope (Haleakala)

* Pictures

* Orbital Elements

Epoch 2017 Nov. 23.0 TT = JDT 2458080.5
T 2017 Nov. 23.37069 TT                                 MPCW
q   5.3277742            (2000.0)            P               Q
z  -0.0003743      Peri.   10.32013     -0.53513437     +0.51120858
 +/-0.0000004      Node   128.17453     +0.70123340     -0.17512247
e   1.0019939      Incl.  121.18575     +0.47106573     +0.84142611
From 1482 observations 2016 Jan. 1-2018 Mar. 24, mean residual 0".5.

* Finding Charts

* Magnitudes Graph

        m1 = 1.2 + 5 log d + 15.0 log r

---------------------------------------------------------------------

The orbital elements are published on M.P.E.C. 2018-F152.
The charts are made with StellaNavigator Ver.10 (AstroArts).
The magnitudes graphs are made with Comet for Windows.

---------------------------------------------------------------------

Copyright(C) Seiichi Yoshida (comet@aerith.net). All rights reserved.